sat.trackr.live / text

‹ back to catalog

ONEWEB-0298

NORAD 49087 · 2021-075N

PAYLOAD ACTIVE UNKNOWN

§ Identity

Operator
Country
UK
Launch date
2021-08-21
Launch site
TYMSC
Launch vehicle
Mass (kg)
RCS (m²)

Purposes: comms

External: N2YO · Heavens-Above · Gunter

§ Orbital elements

Epoch: 2026-05-25T02:34:49.378944Z

Period
109.29 min
Inclination
87.9156°
Eccentricity
0.0001989
Mean motion
13.17647879 rev/d
Perigee alt
1,192.2 km
Apogee alt
1,195.2 km
Semi-major
7,571.9 km
B*
-1.9699e-6
RAAN
10.4574°
Arg perigee
84.2031°
Mean anomaly
275.9327°
Rev number
23,058

§ Raw data

ONEWEB-02981 49087U 21075N   26145.10751596  .00000012  00000+0 -19699-5 0  99972 49087  87.9156  10.4574 0001989  84.2031 275.9327 13.17647879230588

JSON: /api/v1/satellites/49087 · /tle

For live sub-satellite position, see the globe view (requires WebGL).

§ Visibility from observer

Set your observer location to see the next 7 days of passes ≥ 10°. The values pass through the URL so the page stays shareable.

No JS? Fill the form by hand. The geolocation button needs JavaScript.